Year,Month,Day,Hour,Minute,Value (Times are PST for temperature in C)
2006,08,18,00,00,13.70
2006,08,18,00,01,13.70
2006,08,18,00,02,13.70
2006,08,18,00,03,13.70
2006,08,18,00,04,13.70
2006,08,18,00,05,13.70
2006,08,18,00,06,13.60
2006,08,18,00,07,13.60
2006,08,18,00,08,13.60
2006,08,18,00,09,13.60
2006,08,18,00,10,13.60
2006,08,18,00,11,13.60
2006,08,18,00,12,13.60
2006,08,18,00,13,13.60
2006,08,18,00,14,13.50
2006,08,18,00,15,13.50
2006,08,18,00,16,13.50
2006,08,18,00,17,13.50
2006,08,18,00,18,13.50
2006,08,18,00,19,13.50
2006,08,18,00,20,13.50
2006,08,18,00,21,13.50
2006,08,18,00,22,13.40
2006,08,18,00,23,13.40
2006,08,18,00,24,13.40
2006,08,18,00,25,13.40
2006,08,18,00,26,13.40
2006,08,18,00,27,13.40
2006,08,18,00,28,13.30
2006,08,18,00,29,13.30
2006,08,18,00,30,13.30
2006,08,18,00,31,13.30
2006,08,18,00,32,13.30
2006,08,18,00,33,13.30
2006,08,18,00,34,13.30
2006,08,18,00,35,13.20
2006,08,18,00,36,13.20
2006,08,18,00,37,13.20
2006,08,18,00,38,13.20
2006,08,18,00,39,13.20
2006,08,18,00,40,13.10
2006,08,18,00,41,13.10
2006,08,18,00,42,13.10
2006,08,18,00,43,13.10
2006,08,18,00,44,13.10
2006,08,18,00,45,13.00
2006,08,18,00,46,13.00
2006,08,18,00,47,13.00
2006,08,18,00,48,13.00
2006,08,18,00,49,13.00
2006,08,18,00,50,13.00
2006,08,18,00,51,12.90
2006,08,18,00,52,12.90
2006,08,18,00,53,12.90
2006,08,18,00,54,12.90
2006,08,18,00,55,12.90
2006,08,18,00,56,12.80
2006,08,18,00,57,12.80
2006,08,18,00,58,12.80
2006,08,18,00,59,12.80
2006,08,18,01,00,12.80
2006,08,18,01,01,12.80
2006,08,18,01,02,12.80
2006,08,18,01,03,12.80
2006,08,18,01,04,12.80
2006,08,18,01,05,12.80
2006,08,18,01,06,12.70
2006,08,18,01,07,12.70
2006,08,18,01,08,12.70
2006,08,18,01,09,12.70
2006,08,18,01,10,12.70
2006,08,18,01,11,12.70
2006,08,18,01,12,12.70
2006,08,18,01,13,12.60
2006,08,18,01,14,12.60
2006,08,18,01,15,12.60
2006,08,18,01,16,12.60
2006,08,18,01,17,12.60
2006,08,18,01,18,12.60
2006,08,18,01,19,12.60
2006,08,18,01,20,12.50
2006,08,18,01,21,12.60
2006,08,18,01,22,12.60
2006,08,18,01,23,12.60
2006,08,18,01,24,12.60
2006,08,18,01,25,12.60
2006,08,18,01,26,12.70
2006,08,18,01,27,12.70
2006,08,18,01,28,12.60
2006,08,18,01,29,12.60
2006,08,18,01,30,12.60
2006,08,18,01,31,12.60
2006,08,18,01,32,12.60
2006,08,18,01,33,12.60
2006,08,18,01,34,12.50
2006,08,18,01,35,12.50
2006,08,18,01,36,12.50
2006,08,18,01,37,12.50
2006,08,18,01,38,12.50
2006,08,18,01,39,12.40
2006,08,18,01,40,12.40
2006,08,18,01,41,12.40
2006,08,18,01,42,12.40
2006,08,18,01,43,12.40
2006,08,18,01,44,12.30
2006,08,18,01,45,12.30
2006,08,18,01,46,12.30
2006,08,18,01,47,12.30
2006,08,18,01,48,12.30
2006,08,18,01,49,12.30
2006,08,18,01,50,12.30
2006,08,18,01,51,12.30
2006,08,18,01,52,12.30
2006,08,18,01,53,12.30
2006,08,18,01,54,12.30
2006,08,18,01,55,12.30
2006,08,18,01,56,12.30
2006,08,18,01,57,12.30
2006,08,18,01,58,12.30
2006,08,18,01,59,12.30
2006,08,18,02,00,12.30
2006,08,18,02,01,12.30
2006,08,18,02,02,12.30
2006,08,18,02,03,12.30
2006,08,18,02,04,12.20
2006,08,18,02,05,12.20
2006,08,18,02,06,12.20
2006,08,18,02,07,12.10
2006,08,18,02,08,12.10
2006,08,18,02,09,12.10
2006,08,18,02,10,12.00
2006,08,18,02,11,12.00
2006,08,18,02,12,12.00
2006,08,18,02,13,11.90
2006,08,18,02,14,11.90
2006,08,18,02,15,11.90
2006,08,18,02,16,11.80
2006,08,18,02,17,11.80
2006,08,18,02,18,11.80
2006,08,18,02,19,11.80
2006,08,18,02,20,11.80
2006,08,18,02,21,11.80
2006,08,18,02,22,11.80
2006,08,18,02,23,11.80
2006,08,18,02,24,11.80
2006,08,18,02,25,11.80
2006,08,18,02,26,11.80
2006,08,18,02,27,11.80
2006,08,18,02,28,11.80
2006,08,18,02,29,11.80
2006,08,18,02,30,11.80
2006,08,18,02,31,11.80
2006,08,18,02,32,11.80
2006,08,18,02,33,11.80
2006,08,18,02,34,11.80
2006,08,18,02,35,11.80
2006,08,18,02,36,11.80
2006,08,18,02,37,11.80
2006,08,18,02,38,11.80
2006,08,18,02,39,11.80
2006,08,18,02,40,11.80
2006,08,18,02,41,11.80
2006,08,18,02,42,11.80
2006,08,18,02,43,11.80
2006,08,18,02,44,11.80
2006,08,18,02,45,11.80
2006,08,18,02,46,11.70
2006,08,18,02,47,11.70
2006,08,18,02,48,11.70
2006,08,18,02,49,11.70
2006,08,18,02,50,11.70
2006,08,18,02,51,11.70
2006,08,18,02,52,11.60
2006,08,18,02,53,11.60
2006,08,18,02,54,11.60
2006,08,18,02,55,11.60
2006,08,18,02,56,11.60
2006,08,18,02,57,11.60
2006,08,18,02,58,11.60
2006,08,18,02,59,11.60
2006,08,18,03,00,11.60
2006,08,18,03,01,11.60
2006,08,18,03,02,11.60
2006,08,18,03,03,11.60
2006,08,18,03,04,11.60
2006,08,18,03,05,11.60
2006,08,18,03,06,11.60
2006,08,18,03,07,11.60
2006,08,18,03,08,11.60
2006,08,18,03,09,11.50
2006,08,18,03,10,11.40
2006,08,18,03,11,11.40
2006,08,18,03,12,11.40
2006,08,18,03,13,11.40
2006,08,18,03,14,11.40
2006,08,18,03,15,11.40
2006,08,18,03,16,11.40
2006,08,18,03,17,11.40
2006,08,18,03,18,11.40
2006,08,18,03,19,11.40
2006,08,18,03,20,11.40
2006,08,18,03,21,11.30
2006,08,18,03,22,11.30
2006,08,18,03,23,11.30
2006,08,18,03,24,11.30
2006,08,18,03,25,11.30
2006,08,18,03,26,11.30
2006,08,18,03,27,11.30
2006,08,18,03,28,11.30
2006,08,18,03,29,11.30
2006,08,18,03,30,11.30
2006,08,18,03,31,11.30
2006,08,18,03,32,11.30
2006,08,18,03,33,11.30
2006,08,18,03,34,11.30
2006,08,18,03,35,11.30
2006,08,18,03,36,11.20
2006,08,18,03,37,11.20
2006,08,18,03,38,11.20
2006,08,18,03,39,11.20
2006,08,18,03,40,11.20
2006,08,18,03,41,11.20
2006,08,18,03,42,11.20
2006,08,18,03,43,11.20
2006,08,18,03,44,11.10
2006,08,18,03,45,11.10
2006,08,18,03,46,11.10
2006,08,18,03,47,11.10
2006,08,18,03,48,11.10
2006,08,18,03,49,11.10
2006,08,18,03,50,11.10
2006,08,18,03,51,11.10
2006,08,18,03,52,11.10
2006,08,18,03,53,11.10
2006,08,18,03,54,11.10
2006,08,18,03,55,11.10
2006,08,18,03,56,11.10
2006,08,18,03,57,11.10
2006,08,18,03,58,11.10
2006,08,18,03,59,11.10
2006,08,18,04,00,11.10
2006,08,18,04,01,11.10
2006,08,18,04,02,11.10
2006,08,18,04,03,11.00
2006,08,18,04,04,10.90
2006,08,18,04,05,10.90
2006,08,18,04,06,10.90
2006,08,18,04,07,10.90
2006,08,18,04,08,10.90
2006,08,18,04,09,10.90
2006,08,18,04,10,10.90
2006,08,18,04,11,10.90
2006,08,18,04,12,10.90
2006,08,18,04,13,10.90
2006,08,18,04,14,10.90
2006,08,18,04,15,10.90
2006,08,18,04,16,10.90
2006,08,18,04,17,10.90
2006,08,18,04,18,10.90
2006,08,18,04,19,10.80
2006,08,18,04,20,10.80
2006,08,18,04,21,10.80
2006,08,18,04,22,10.80
2006,08,18,04,23,10.80
2006,08,18,04,24,10.80
2006,08,18,04,25,10.80
2006,08,18,04,26,10.80
2006,08,18,04,27,10.80
2006,08,18,04,28,10.80
2006,08,18,04,29,10.80
2006,08,18,04,30,10.80
2006,08,18,04,31,10.80
2006,08,18,04,32,10.80
2006,08,18,04,33,10.80
2006,08,18,04,34,10.80
2006,08,18,04,35,10.70
2006,08,18,04,36,10.70
2006,08,18,04,37,10.70
2006,08,18,04,38,10.70
2006,08,18,04,39,10.70
2006,08,18,04,40,10.70
2006,08,18,04,41,10.70
2006,08,18,04,42,10.70
2006,08,18,04,43,10.70
2006,08,18,04,44,10.70
2006,08,18,04,45,10.60
2006,08,18,04,46,10.60
2006,08,18,04,47,10.60
2006,08,18,04,48,10.60
2006,08,18,04,49,10.60
2006,08,18,04,50,10.60
2006,08,18,04,51,10.60
2006,08,18,04,52,10.60
2006,08,18,04,53,10.60
2006,08,18,04,54,10.60
2006,08,18,04,55,10.60
2006,08,18,04,56,10.60
2006,08,18,04,57,10.60
2006,08,18,04,58,10.50
2006,08,18,04,59,10.40
2006,08,18,05,00,10.40
2006,08,18,05,01,10.40
2006,08,18,05,02,10.40
2006,08,18,05,03,10.40
2006,08,18,05,04,10.40
2006,08,18,05,05,10.40
2006,08,18,05,06,10.40
2006,08,18,05,07,10.40
2006,08,18,05,08,10.40
2006,08,18,05,09,10.40
2006,08,18,05,10,10.40
2006,08,18,05,11,10.30
2006,08,18,05,12,10.30
2006,08,18,05,13,10.30
2006,08,18,05,14,10.30
2006,08,18,05,15,10.40
2006,08,18,05,16,10.40
2006,08,18,05,17,10.30
2006,08,18,05,18,10.30
2006,08,18,05,19,10.30
2006,08,18,05,20,10.30
2006,08,18,05,21,10.30
2006,08,18,05,22,10.30
2006,08,18,05,23,10.30
2006,08,18,05,24,10.30
2006,08,18,05,25,10.30
2006,08,18,05,26,10.20
2006,08,18,05,27,10.20
2006,08,18,05,28,10.20
2006,08,18,05,29,10.20
2006,08,18,05,30,10.20
2006,08,18,05,31,10.20
2006,08,18,05,32,10.10
2006,08,18,05,33,10.10
2006,08,18,05,34,10.10
2006,08,18,05,35,10.10
2006,08,18,05,36,10.10
2006,08,18,05,37,10.10
2006,08,18,05,38,10.10
2006,08,18,05,39,10.10
2006,08,18,05,40,10.10
2006,08,18,05,41,10.10
2006,08,18,05,42,10.10
2006,08,18,05,43,10.10
2006,08,18,05,44,10.10
2006,08,18,05,45,10.10
2006,08,18,05,46,10.10
2006,08,18,05,47,10.10
2006,08,18,05,48,10.10
2006,08,18,05,49,10.10
2006,08,18,05,50,10.10
2006,08,18,05,51,10.10
2006,08,18,05,52,10.10
2006,08,18,05,53,10.10
2006,08,18,05,54,10.10
2006,08,18,05,55,10.10
2006,08,18,05,56,10.10
2006,08,18,05,57,10.00
2006,08,18,05,58,9.90
2006,08,18,05,59,9.90
2006,08,18,06,00,9.90
2006,08,18,06,01,9.90
2006,08,18,06,02,9.90
2006,08,18,06,03,9.90
2006,08,18,06,04,9.90
2006,08,18,06,05,9.90
2006,08,18,06,06,9.90
2006,08,18,06,07,9.90
2006,08,18,06,08,9.90
2006,08,18,06,09,9.90
2006,08,18,06,10,9.90
2006,08,18,06,11,9.90
2006,08,18,06,12,9.90
2006,08,18,06,13,9.90
2006,08,18,06,14,9.90
2006,08,18,06,15,9.90
2006,08,18,06,16,9.90
2006,08,18,06,17,9.90
2006,08,18,06,18,9.90
2006,08,18,06,19,9.90
2006,08,18,06,20,9.90
2006,08,18,06,21,9.90
2006,08,18,06,22,9.90
2006,08,18,06,23,9.90
2006,08,18,06,24,9.90
2006,08,18,06,25,9.90
2006,08,18,06,26,9.90
2006,08,18,06,27,9.90
2006,08,18,06,28,9.90
2006,08,18,06,29,9.90
2006,08,18,06,30,9.90
2006,08,18,06,31,9.90
2006,08,18,06,32,9.90
2006,08,18,06,33,9.90
2006,08,18,06,34,9.90
2006,08,18,06,35,9.90
2006,08,18,06,36,9.90
2006,08,18,06,37,9.90
2006,08,18,06,38,9.90
2006,08,18,06,39,9.90
2006,08,18,06,40,9.90
2006,08,18,06,41,9.90
2006,08,18,06,42,9.90
2006,08,18,06,43,9.90
2006,08,18,06,44,9.90
2006,08,18,06,45,9.90
2006,08,18,06,46,9.90
2006,08,18,06,47,10.00
2006,08,18,06,48,10.10
2006,08,18,06,49,10.10
2006,08,18,06,50,10.10
2006,08,18,06,51,10.10
2006,08,18,06,52,10.10
2006,08,18,06,53,10.10
2006,08,18,06,54,10.10
2006,08,18,06,55,10.10
2006,08,18,06,56,10.20
2006,08,18,06,57,10.20
2006,08,18,06,58,10.20
2006,08,18,06,59,10.30
2006,08,18,07,00,10.30
2006,08,18,07,01,10.40
2006,08,18,07,02,10.40
2006,08,18,07,03,10.40
2006,08,18,07,04,10.50
2006,08,18,07,05,10.60
2006,08,18,07,06,10.60
2006,08,18,07,07,10.60
2006,08,18,07,08,10.70
2006,08,18,07,09,10.70
2006,08,18,07,10,10.70
2006,08,18,07,11,10.80
2006,08,18,07,12,10.80
2006,08,18,07,13,10.90
2006,08,18,07,14,10.90
2006,08,18,07,15,10.90
2006,08,18,07,16,10.90
2006,08,18,07,17,10.90
2006,08,18,07,18,11.00
2006,08,18,07,19,11.10
2006,08,18,07,20,11.10
2006,08,18,07,21,11.10
2006,08,18,07,22,11.20
2006,08,18,07,23,11.20
2006,08,18,07,24,11.30
2006,08,18,07,25,11.30
2006,08,18,07,26,11.40
2006,08,18,07,27,11.40
2006,08,18,07,28,11.60
2006,08,18,07,29,11.60
2006,08,18,07,30,11.60
2006,08,18,07,31,11.70
2006,08,18,07,32,11.80
2006,08,18,07,33,11.80
2006,08,18,07,34,11.90
2006,08,18,07,35,12.00
2006,08,18,07,36,12.10
2006,08,18,07,37,12.10
2006,08,18,07,38,12.20
2006,08,18,07,39,12.20
2006,08,18,07,40,12.30
2006,08,18,07,41,12.30
2006,08,18,07,42,12.30
2006,08,18,07,43,12.40
2006,08,18,07,44,12.50
2006,08,18,07,45,12.50
2006,08,18,07,46,12.60
2006,08,18,07,47,12.70
2006,08,18,07,48,12.80
2006,08,18,07,49,12.90
2006,08,18,07,50,13.00
2006,08,18,07,51,13.10
2006,08,18,07,52,13.20
2006,08,18,07,53,13.40
2006,08,18,07,54,13.50
2006,08,18,07,55,13.60
2006,08,18,07,56,13.70
2006,08,18,07,57,13.70
2006,08,18,07,58,13.80
2006,08,18,07,59,13.90
2006,08,18,08,00,14.00
2006,08,18,08,01,14.10
2006,08,18,08,02,14.20
2006,08,18,08,03,14.30
2006,08,18,08,04,14.40
2006,08,18,08,05,14.50
2006,08,18,08,06,14.60
2006,08,18,08,07,14.70
2006,08,18,08,08,14.80
2006,08,18,08,09,14.80
2006,08,18,08,10,14.80
2006,08,18,08,11,14.90
2006,08,18,08,12,14.90
2006,08,18,08,13,15.00
2006,08,18,08,14,15.10
2006,08,18,08,15,15.20
2006,08,18,08,16,15.30
2006,08,18,08,17,15.40
2006,08,18,08,18,15.40
2006,08,18,08,19,15.50
2006,08,18,08,20,15.60
2006,08,18,08,21,15.60
2006,08,18,08,22,15.70
2006,08,18,08,23,15.70
2006,08,18,08,24,15.70
2006,08,18,08,25,15.70
2006,08,18,08,26,15.80
2006,08,18,08,27,15.80
2006,08,18,08,28,15.80
2006,08,18,08,29,15.80
2006,08,18,08,30,15.90
2006,08,18,08,31,15.90
2006,08,18,08,32,15.80
2006,08,18,08,33,15.80
2006,08,18,08,34,15.90
2006,08,18,08,35,15.90
2006,08,18,08,36,16.10
2006,08,18,08,37,16.10
2006,08,18,08,38,16.10
2006,08,18,08,39,16.20
2006,08,18,08,40,16.30
2006,08,18,08,41,16.40
2006,08,18,08,42,16.40
2006,08,18,08,43,16.50
2006,08,18,08,44,16.60
2006,08,18,08,45,16.70
2006,08,18,08,46,16.70
2006,08,18,08,47,16.80
2006,08,18,08,48,16.90
2006,08,18,08,49,17.00
2006,08,18,08,50,17.00
2006,08,18,08,51,17.10
2006,08,18,08,52,17.00
2006,08,18,08,53,17.00
2006,08,18,08,54,16.90
2006,08,18,08,55,16.90
2006,08,18,08,56,16.90
2006,08,18,08,57,17.00
2006,08,18,08,58,17.00
2006,08,18,08,59,17.20
2006,08,18,09,00,17.30
2006,08,18,09,01,17.40
2006,08,18,09,02,17.50
2006,08,18,09,03,17.60
2006,08,18,09,04,17.60
2006,08,18,09,05,17.70
2006,08,18,09,06,17.70
2006,08,18,09,07,17.60
2006,08,18,09,08,17.50
2006,08,18,09,09,17.50
2006,08,18,09,10,17.40
2006,08,18,09,11,17.40
2006,08,18,09,12,17.50
2006,08,18,09,13,17.60
2006,08,18,09,14,17.70
2006,08,18,09,15,17.80
2006,08,18,09,16,17.90
2006,08,18,09,17,18.00
2006,08,18,09,18,18.10
2006,08,18,09,19,18.20
2006,08,18,09,20,18.20
2006,08,18,09,21,18.20
2006,08,18,09,22,18.20
2006,08,18,09,23,18.20
2006,08,18,09,24,18.20
2006,08,18,09,25,18.20
2006,08,18,09,26,18.20
2006,08,18,09,27,18.20
2006,08,18,09,28,18.20
2006,08,18,09,29,18.20
2006,08,18,09,30,18.20
2006,08,18,09,31,18.20
2006,08,18,09,32,18.20
2006,08,18,09,33,18.20
2006,08,18,09,34,18.30
2006,08,18,09,35,18.30
2006,08,18,09,36,18.30
2006,08,18,09,37,18.30
2006,08,18,09,38,18.40
2006,08,18,09,39,18.50
2006,08,18,09,40,18.60
2006,08,18,09,41,18.80
2006,08,18,09,42,18.80
2006,08,18,09,43,18.90
2006,08,18,09,44,19.00
2006,08,18,09,45,19.10
2006,08,18,09,46,19.10
2006,08,18,09,47,19.30
2006,08,18,09,48,19.30
2006,08,18,09,49,19.40
2006,08,18,09,50,19.40
2006,08,18,09,51,19.40
2006,08,18,09,52,19.40
2006,08,18,09,53,19.50
2006,08,18,09,54,19.60
2006,08,18,09,55,19.70
2006,08,18,09,56,19.80
2006,08,18,09,57,20.00
2006,08,18,09,58,20.10
2006,08,18,09,59,20.20
2006,08,18,10,00,20.50
2006,08,18,10,01,20.70
2006,08,18,10,02,20.80
2006,08,18,10,03,20.90
2006,08,18,10,04,20.90
2006,08,18,10,05,20.90
2006,08,18,10,06,20.90
2006,08,18,10,07,20.90
2006,08,18,10,08,20.90
2006,08,18,10,09,20.90
2006,08,18,10,10,20.90
2006,08,18,10,11,20.80
2006,08,18,10,12,20.70
2006,08,18,10,13,20.70
2006,08,18,10,14,20.70
2006,08,18,10,15,20.80
2006,08,18,10,16,20.80
2006,08,18,10,17,20.80
2006,08,18,10,18,20.90
2006,08,18,10,19,21.00
2006,08,18,10,20,21.00
2006,08,18,10,21,20.90
2006,08,18,10,22,20.90
2006,08,18,10,23,20.90
2006,08,18,10,24,21.00
2006,08,18,10,25,21.10
2006,08,18,10,26,21.20
2006,08,18,10,27,21.30
2006,08,18,10,28,21.30
2006,08,18,10,29,21.20
2006,08,18,10,30,21.20
2006,08,18,10,31,21.10
2006,08,18,10,32,21.10
2006,08,18,10,33,21.10
2006,08,18,10,34,21.20
2006,08,18,10,35,21.20
2006,08,18,10,36,21.30
2006,08,18,10,37,21.30
2006,08,18,10,38,21.40
2006,08,18,10,39,21.50
2006,08,18,10,40,21.60
2006,08,18,10,41,21.70
2006,08,18,10,42,21.80
2006,08,18,10,43,21.90
2006,08,18,10,44,22.00
2006,08,18,10,45,22.10
2006,08,18,10,46,22.20
2006,08,18,10,47,22.30
2006,08,18,10,48,22.30
2006,08,18,10,49,22.00
2006,08,18,10,50,21.80
2006,08,18,10,51,21.50
2006,08,18,10,52,21.30
2006,08,18,10,53,21.00
2006,08,18,10,54,20.80
2006,08,18,10,55,20.70
2006,08,18,10,56,20.70
2006,08,18,10,57,20.70
2006,08,18,10,58,20.80
2006,08,18,10,59,20.70
2006,08,18,11,00,20.40
2006,08,18,11,01,20.10
2006,08,18,11,02,19.80
2006,08,18,11,03,19.60
2006,08,18,11,04,19.40
2006,08,18,11,05,19.40
2006,08,18,11,06,19.40
2006,08,18,11,07,19.50
2006,08,18,11,08,19.50
2006,08,18,11,09,19.50
2006,08,18,11,10,19.40
2006,08,18,11,11,19.20
2006,08,18,11,12,19.20
2006,08,18,11,13,19.20
2006,08,18,11,14,19.40
2006,08,18,11,15,19.60
2006,08,18,11,16,19.60
2006,08,18,11,17,19.70
2006,08,18,11,18,19.80
2006,08,18,11,19,19.90
2006,08,18,11,20,19.90
2006,08,18,11,21,19.90
2006,08,18,11,22,20.10
2006,08,18,11,23,20.20
2006,08,18,11,24,20.20
2006,08,18,11,25,20.00
2006,08,18,11,26,19.60
2006,08,18,11,27,19.40
2006,08,18,11,28,19.40
2006,08,18,11,29,19.40
2006,08,18,11,30,19.30
2006,08,18,11,31,19.30
2006,08,18,11,32,19.30
2006,08,18,11,33,19.20
2006,08,18,11,34,19.30
2006,08,18,11,35,19.30
2006,08,18,11,36,19.30
2006,08,18,11,37,19.30
2006,08,18,11,38,19.30
2006,08,18,11,39,19.30
2006,08,18,11,40,19.20
2006,08,18,11,41,19.20
2006,08,18,11,42,19.20
2006,08,18,11,43,19.20
2006,08,18,11,44,19.30
2006,08,18,11,45,19.30
2006,08,18,11,46,19.40
2006,08,18,11,47,19.70
2006,08,18,11,48,19.80
2006,08,18,11,49,19.90
2006,08,18,11,50,20.10
2006,08,18,11,51,20.30
2006,08,18,11,52,20.50
2006,08,18,11,53,20.40
2006,08,18,11,54,20.30
2006,08,18,11,55,20.20
2006,08,18,11,56,20.10
2006,08,18,11,57,20.10
2006,08,18,11,58,20.00
2006,08,18,11,59,19.90
2006,08,18,12,00,19.90
2006,08,18,12,01,19.90
2006,08,18,12,02,20.10
2006,08,18,12,03,20.10
2006,08,18,12,04,20.20
2006,08,18,12,05,20.20
2006,08,18,12,06,20.20
2006,08,18,12,07,20.10
2006,08,18,12,08,20.10
2006,08,18,12,09,20.20
2006,08,18,12,10,20.20
2006,08,18,12,11,20.30
2006,08,18,12,12,20.30
2006,08,18,12,13,20.40
2006,08,18,12,14,20.60
2006,08,18,12,15,20.70
2006,08,18,12,16,20.90
2006,08,18,12,17,20.90
2006,08,18,12,18,21.00
2006,08,18,12,19,21.10
2006,08,18,12,20,21.30
2006,08,18,12,21,21.30
2006,08,18,12,22,21.30
2006,08,18,12,23,21.30
2006,08,18,12,24,21.30
2006,08,18,12,25,21.30
2006,08,18,12,26,21.30
2006,08,18,12,27,21.30
2006,08,18,12,28,21.20
2006,08,18,12,29,21.10
2006,08,18,12,30,21.00
2006,08,18,12,31,21.10
2006,08,18,12,32,21.20
2006,08,18,12,33,21.30
2006,08,18,12,34,21.50
2006,08,18,12,35,21.80
2006,08,18,12,36,21.70
2006,08,18,12,37,21.60
2006,08,18,12,38,21.60
2006,08,18,12,39,21.60
2006,08,18,12,40,21.50
2006,08,18,12,41,21.20
2006,08,18,12,42,21.00
2006,08,18,12,43,20.80
2006,08,18,12,44,20.80
2006,08,18,12,45,20.80
2006,08,18,12,46,20.90
2006,08,18,12,47,20.90
2006,08,18,12,48,20.90
2006,08,18,12,49,20.80
2006,08,18,12,50,20.70
2006,08,18,12,51,20.50
2006,08,18,12,52,20.50
2006,08,18,12,53,20.50
2006,08,18,12,54,20.60
2006,08,18,12,55,20.60
2006,08,18,12,56,20.80
2006,08,18,12,57,20.90
2006,08,18,12,58,21.00
2006,08,18,12,59,21.00
2006,08,18,13,00,21.10
2006,08,18,13,01,21.20
2006,08,18,13,02,21.20
2006,08,18,13,03,21.30
2006,08,18,13,04,21.20
2006,08,18,13,05,21.10
2006,08,18,13,06,21.10
2006,08,18,13,07,21.10
2006,08,18,13,08,21.20
2006,08,18,13,09,21.40
2006,08,18,13,10,21.60
2006,08,18,13,11,21.80
2006,08,18,13,12,21.80
2006,08,18,13,13,21.80
2006,08,18,13,14,21.70
2006,08,18,13,15,21.50
2006,08,18,13,16,21.40
2006,08,18,13,17,21.20
2006,08,18,13,18,21.10
2006,08,18,13,19,21.10
2006,08,18,13,20,21.20
2006,08,18,13,21,21.20
2006,08,18,13,22,21.30
2006,08,18,13,23,21.30
2006,08,18,13,24,21.50
2006,08,18,13,25,21.70
2006,08,18,13,26,21.70
2006,08,18,13,27,21.80
2006,08,18,13,28,21.90
2006,08,18,13,29,22.00
2006,08,18,13,30,22.10
2006,08,18,13,31,22.30
2006,08,18,13,32,22.20
2006,08,18,13,33,22.20
2006,08,18,13,34,22.20
2006,08,18,13,35,22.20
2006,08,18,13,36,22.30
2006,08,18,13,37,22.20
2006,08,18,13,38,22.10
2006,08,18,13,39,22.00
2006,08,18,13,40,22.10
2006,08,18,13,41,22.00
2006,08,18,13,42,21.90
2006,08,18,13,43,21.80
2006,08,18,13,44,22.00
2006,08,18,13,45,22.30
2006,08,18,13,46,22.30
2006,08,18,13,47,22.30
2006,08,18,13,48,22.30
2006,08,18,13,49,22.30
2006,08,18,13,50,22.40
2006,08,18,13,51,22.40
2006,08,18,13,52,22.50
2006,08,18,13,53,22.70
2006,08,18,13,54,22.90
2006,08,18,13,55,22.90
2006,08,18,13,56,22.90
2006,08,18,13,57,22.80
2006,08,18,13,58,22.80
2006,08,18,13,59,22.80
2006,08,18,14,00,22.80
2006,08,18,14,01,22.70
2006,08,18,14,02,22.60
2006,08,18,14,03,22.40
2006,08,18,14,04,22.30
2006,08,18,14,05,22.30
2006,08,18,14,06,22.30
2006,08,18,14,07,22.30
2006,08,18,14,08,22.40
2006,08,18,14,09,22.30
2006,08,18,14,10,22.40
2006,08,18,14,11,22.50
2006,08,18,14,12,22.40
2006,08,18,14,13,22.30
2006,08,18,14,14,22.30
2006,08,18,14,15,22.60
2006,08,18,14,16,22.70
2006,08,18,14,17,22.70
2006,08,18,14,18,22.60
2006,08,18,14,19,22.50
2006,08,18,14,20,22.30
2006,08,18,14,21,22.20
2006,08,18,14,22,22.10
2006,08,18,14,23,22.10
2006,08,18,14,24,22.10
2006,08,18,14,25,22.10
2006,08,18,14,26,22.20
2006,08,18,14,27,22.30
2006,08,18,14,28,22.40
2006,08,18,14,29,22.40
2006,08,18,14,30,22.70
2006,08,18,14,31,22.90
2006,08,18,14,32,22.90
2006,08,18,14,33,23.00
2006,08,18,14,34,22.80
2006,08,18,14,35,22.60
2006,08,18,14,36,22.50
2006,08,18,14,37,22.30
2006,08,18,14,38,22.30
2006,08,18,14,39,22.50
2006,08,18,14,40,22.60
2006,08,18,14,41,22.70
2006,08,18,14,42,22.80
2006,08,18,14,43,22.90
2006,08,18,14,44,23.10
2006,08,18,14,45,23.00
2006,08,18,14,46,22.90
2006,08,18,14,47,22.80
2006,08,18,14,48,22.80
2006,08,18,14,49,22.90
2006,08,18,14,50,23.10
2006,08,18,14,51,23.20
2006,08,18,14,52,23.10
2006,08,18,14,53,22.90
2006,08,18,14,54,22.80
2006,08,18,14,55,22.80
2006,08,18,14,56,22.80
2006,08,18,14,57,22.90
2006,08,18,14,58,23.00
2006,08,18,14,59,23.20
2006,08,18,15,00,23.30
2006,08,18,15,01,23.30
2006,08,18,15,02,23.30
2006,08,18,15,03,23.30
2006,08,18,15,04,23.30
2006,08,18,15,05,23.40
2006,08,18,15,06,23.50
2006,08,18,15,07,23.30
2006,08,18,15,08,23.30
2006,08,18,15,09,23.30
2006,08,18,15,10,23.30
2006,08,18,15,11,23.30
2006,08,18,15,12,23.30
2006,08,18,15,13,23.30
2006,08,18,15,14,23.30
2006,08,18,15,15,23.20
2006,08,18,15,16,23.20
2006,08,18,15,17,23.10
2006,08,18,15,18,23.10
2006,08,18,15,19,23.30
2006,08,18,15,20,23.40
2006,08,18,15,21,23.50
2006,08,18,15,22,23.50
2006,08,18,15,23,23.60
2006,08,18,15,24,23.70
2006,08,18,15,25,23.70
2006,08,18,15,26,23.70
2006,08,18,15,27,23.80
2006,08,18,15,28,23.80
2006,08,18,15,29,23.60
2006,08,18,15,30,23.60
2006,08,18,15,31,23.50
2006,08,18,15,32,23.40
2006,08,18,15,33,23.50
2006,08,18,15,34,23.60
2006,08,18,15,35,23.70
2006,08,18,15,36,23.50
2006,08,18,15,37,23.40
2006,08,18,15,38,23.20
2006,08,18,15,39,23.00
2006,08,18,15,40,22.90
2006,08,18,15,41,22.90
2006,08,18,15,42,23.00
2006,08,18,15,43,23.20
2006,08,18,15,44,23.40
2006,08,18,15,45,23.60
2006,08,18,15,46,23.70
2006,08,18,15,47,23.70
2006,08,18,15,48,23.70
2006,08,18,15,49,23.70
2006,08,18,15,50,23.60
2006,08,18,15,51,23.70
2006,08,18,15,52,23.60
2006,08,18,15,53,23.70
2006,08,18,15,54,23.80
2006,08,18,15,55,23.90
2006,08,18,15,56,23.90
2006,08,18,15,57,23.90
2006,08,18,15,58,24.00
2006,08,18,15,59,24.10
2006,08,18,16,00,24.00
2006,08,18,16,01,23.80
2006,08,18,16,02,23.70
2006,08,18,16,03,23.70
2006,08,18,16,04,23.70
2006,08,18,16,05,23.70
2006,08,18,16,06,23.70
2006,08,18,16,07,23.70
2006,08,18,16,08,23.70
2006,08,18,16,09,23.80
2006,08,18,16,10,23.70
2006,08,18,16,11,23.70
2006,08,18,16,12,23.60
2006,08,18,16,13,23.40
2006,08,18,16,14,23.50
2006,08,18,16,15,23.60
2006,08,18,16,16,23.60
2006,08,18,16,17,23.50
2006,08,18,16,18,23.60
2006,08,18,16,19,23.50
2006,08,18,16,20,23.60
2006,08,18,16,21,23.70
2006,08,18,16,22,23.70
2006,08,18,16,23,23.70
2006,08,18,16,24,23.70
2006,08,18,16,25,23.80
2006,08,18,16,26,23.80
2006,08,18,16,27,23.90
2006,08,18,16,28,23.90
2006,08,18,16,29,24.10
2006,08,18,16,30,24.00
2006,08,18,16,31,23.80
2006,08,18,16,32,23.80
2006,08,18,16,33,23.80
2006,08,18,16,34,23.90
2006,08,18,16,35,23.90
2006,08,18,16,36,23.90
2006,08,18,16,37,23.90
2006,08,18,16,38,23.80
2006,08,18,16,39,23.70
2006,08,18,16,40,23.70
2006,08,18,16,41,23.70
2006,08,18,16,42,23.70
2006,08,18,16,43,23.70
2006,08,18,16,44,23.70
2006,08,18,16,45,23.70
2006,08,18,16,46,23.70
2006,08,18,16,47,23.70
2006,08,18,16,48,23.80
2006,08,18,16,49,23.90
2006,08,18,16,50,23.90
2006,08,18,16,51,23.90
2006,08,18,16,52,23.90
2006,08,18,16,53,24.00
2006,08,18,16,54,24.00
2006,08,18,16,55,23.90
2006,08,18,16,56,23.90
2006,08,18,16,57,23.90
2006,08,18,16,58,24.00
2006,08,18,16,59,24.10
2006,08,18,17,00,24.10
2006,08,18,17,01,24.10
2006,08,18,17,02,24.10
2006,08,18,17,03,24.10
2006,08,18,17,04,24.10
2006,08,18,17,05,24.10
2006,08,18,17,06,24.10
2006,08,18,17,07,24.10
2006,08,18,17,08,24.20
2006,08,18,17,09,24.30
2006,08,18,17,10,24.40
2006,08,18,17,11,24.40
2006,08,18,17,12,24.50
2006,08,18,17,13,24.70
2006,08,18,17,14,24.80
2006,08,18,17,15,24.80
2006,08,18,17,16,24.90
2006,08,18,17,17,24.70
2006,08,18,17,18,24.50
2006,08,18,17,19,24.50
2006,08,18,17,20,24.40
2006,08,18,17,21,24.40